Wetterdaten: Mittwoch, 19.08.2015
Datum Zeit Auen-Temp. Temp gefhlt Luftfeuchte Luftdruck Regen Wind Richtung Richtung Taupunkt Windben
19.08.2015 00:00 13,1 C 13,0 C 89 % 1011,1 hPa 0,0 mm 0,0 km/h (0 Bft) S-SO 157 11,3 C 0,0 km/h (0 Bft)
19.08.2015 00:05 13,1 C 13,0 C 89 % 1011,1 hPa 0,0 mm 0,0 km/h (0 Bft) S 180 11,3 C 0,0 km/h (0 Bft)
19.08.2015 00:10 13,1 C 13,0 C 89 % 1011,1 hPa 0,0 mm 0,0 km/h (0 Bft) S-SW 202 11,3 C 0,0 km/h (0 Bft)
19.08.2015 00:15 13,1 C 13,0 C 89 % 1011,1 hPa 0,0 mm 0,0 km/h (0 Bft) S-SO 157 11,3 C 0,0 km/h (0 Bft)
19.08.2015 00:20 13,1 C 13,0 C 89 % 1011,1 hPa 0,0 mm 0,0 km/h (0 Bft) S 180 11,3 C 0,0 km/h (0 Bft)
19.08.2015 00:25 13,1 C 13,0 C 89 % 1011,1 hPa 0,0 mm 0,0 km/h (0 Bft) S-SO 157 11,3 C 0,0 km/h (0 Bft)
19.08.2015 00:30 13,0 C 12,9 C 89 % 1011,1 hPa 0,0 mm 0,3 km/h (0 Bft) S-SO 157 11,2 C 0,0 km/h (0 Bft)
19.08.2015 00:35 13,0 C 12,9 C 89 % 1011,3 hPa 0,0 mm 0,3 km/h (0 Bft) SO 135 11,2 C 0,0 km/h (0 Bft)
19.08.2015 00:40 13,0 C 12,9 C 89 % 1011,3 hPa 0,0 mm 0,0 km/h (0 Bft) S 180 11,2 C 0,0 km/h (0 Bft)
19.08.2015 00:45 13,0 C 12,9 C 89 % 1011,3 hPa 0,0 mm 0,0 km/h (0 Bft) S 180 11,2 C 0,0 km/h (0 Bft)
19.08.2015 00:50 13,0 C 12,9 C 89 % 1011,3 hPa 0,0 mm 0,0 km/h (0 Bft) S 180 11,2 C 0,0 km/h (0 Bft)
19.08.2015 00:55 13,0 C 13,0 C 87 % 1011,2 hPa 0,7 mm 0,0 km/h (0 Bft) S-SO 157 10,9 C 0,0 km/h (0 Bft)
19.08.2015 01:00 13,0 C 13,0 C 87 % 1011,2 hPa 0,0 mm 0,0 km/h (0 Bft) SO 135 10,9 C 0,0 km/h (0 Bft)
19.08.2015 01:05 13,0 C 12,9 C 89 % 1011,2 hPa 0,0 mm 0,0 km/h (0 Bft) S-SO 157 11,2 C 0,0 km/h (0 Bft)
19.08.2015 01:10 13,0 C 12,9 C 89 % 1011,2 hPa 0,0 mm 0,0 km/h (0 Bft) S 180 11,2 C 0,0 km/h (0 Bft)
19.08.2015 01:15 13,0 C 12,9 C 90 % 1011,3 hPa 0,7 mm 0,0 km/h (0 Bft) S 180 11,4 C 0,0 km/h (0 Bft)
19.08.2015 01:20 13,0 C 12,9 C 90 % 1011,3 hPa 0,0 mm 0,0 km/h (0 Bft) S 180 11,4 C 0,0 km/h (0 Bft)
19.08.2015 01:25 13,0 C 12,9 C 90 % 1011,3 hPa 0,0 mm 0,0 km/h (0 Bft) S 180 11,4 C 0,0 km/h (0 Bft)
19.08.2015 01:30 13,0 C 12,9 C 90 % 1011,3 hPa 0,0 mm 0,0 km/h (0 Bft) S 180 11,4 C 0,0 km/h (0 Bft)
19.08.2015 01:35 12,9 C 12,8 C 91 % 1011,4 hPa 0,7 mm 0,0 km/h (0 Bft) S 180 11,5 C 0,0 km/h (0 Bft)
19.08.2015 01:40 12,9 C 12,8 C 91 % 1011,4 hPa 0,0 mm 0,0 km/h (0 Bft) S-SW 202 11,5 C 0,0 km/h (0 Bft)
19.08.2015 01:45 12,9 C 12,8 C 91 % 1011,4 hPa 0,0 mm 0,0 km/h (0 Bft) SO 135 11,5 C 0,0 km/h (0 Bft)
19.08.2015 01:50 12,9 C 12,8 C 91 % 1011,4 hPa 0,7 mm 0,0 km/h (0 Bft) SO 135 11,5 C 0,0 km/h (0 Bft)
19.08.2015 01:55 12,9 C 12,8 C 91 % 1011,4 hPa 0,0 mm 0,0 km/h (0 Bft) S 180 11,5 C 0,0 km/h (0 Bft)
19.08.2015 02:00 12,9 C 12,8 C 91 % 1011,4 hPa 0,7 mm 0,0 km/h (0 Bft) S 180 11,5 C 0,0 km/h (0 Bft)
19.08.2015 02:05 12,8 C 12,8 C 91 % 1011,4 hPa 0,0 mm 0,0 km/h (0 Bft) SW 225 11,4 C 0,0 km/h (0 Bft)
19.08.2015 02:10 12,9 C 12,8 C 91 % 1011,4 hPa 0,0 mm 0,0 km/h (0 Bft) W-SW 247 11,5 C 0,0 km/h (0 Bft)
19.08.2015 02:15 12,8 C 12,8 C 91 % 1011,2 hPa 0,7 mm 0,0 km/h (0 Bft) W-SW 247 11,4 C 0,0 km/h (0 Bft)
19.08.2015 02:20 12,8 C 12,7 C 91 % 1011,2 hPa 0,0 mm 0,0 km/h (0 Bft) S 180 11,4 C 0,0 km/h (0 Bft)
19.08.2015 02:25 12,7 C 12,7 C 91 % 1011,2 hPa 0,0 mm 0,0 km/h (0 Bft) S 180 11,3 C 0,0 km/h (0 Bft)
19.08.2015 02:30 12,7 C 12,6 C 91 % 1011,2 hPa 0,0 mm 0,3 km/h (0 Bft) S 180 11,3 C 4,4 km/h (1 Bft)
19.08.2015 02:35 12,6 C 12,5 C 91 % 1011,4 hPa 0,0 mm 0,8 km/h (0 Bft) O-NO 67 11,2 C 2,8 km/h (1 Bft)
19.08.2015 02:40 12,5 C 12,4 C 91 % 1011,4 hPa 0,7 mm 1,0 km/h (0 Bft) O-SO 112 11,1 C 9,1 km/h (2 Bft)
19.08.2015 02:45 12,5 C 12,3 C 90 % 1011,4 hPa 0,0 mm 1,6 km/h (1 Bft) O-SO 112 10,9 C 2,8 km/h (1 Bft)
19.08.2015 02:50 12,4 C 12,3 C 90 % 1011,4 hPa 0,0 mm 1,8 km/h (1 Bft) NO 45 10,8 C 9,6 km/h (2 Bft)
19.08.2015 02:55 12,3 C 12,2 C 90 % 1011,3 hPa 0,0 mm 1,6 km/h (1 Bft) NO 45 10,7 C 3,6 km/h (1 Bft)
19.08.2015 03:00 12,3 C 12,1 C 89 % 1011,3 hPa 0,7 mm 1,3 km/h (1 Bft) O-NO 67 10,5 C 2,8 km/h (1 Bft)
19.08.2015 03:05 12,3 C 12,1 C 89 % 1011,3 hPa 0,0 mm 2,3 km/h (1 Bft) N 360 10,5 C 3,1 km/h (1 Bft)
19.08.2015 03:10 12,2 C 12,1 C 89 % 1011,3 hPa 0,7 mm 1,3 km/h (1 Bft) SW 225 10,4 C 0,0 km/h (0 Bft)
19.08.2015 03:15 12,2 C 12,0 C 89 % 1011,4 hPa 0,0 mm 0,5 km/h (0 Bft) N-NO 22 10,4 C 3,1 km/h (1 Bft)
19.08.2015 03:20 12,1 C 12,0 C 89 % 1011,4 hPa 0,7 mm 0,3 km/h (0 Bft) SW 225 10,3 C 2,6 km/h (1 Bft)
19.08.2015 03:25 12,1 C 12,0 C 89 % 1011,4 hPa 0,0 mm 0,3 km/h (0 Bft) W 270 10,3 C 0,0 km/h (0 Bft)
19.08.2015 03:30 12,1 C 12,0 C 89 % 1011,4 hPa 0,0 mm 0,5 km/h (0 Bft) NO 45 10,3 C 4,1 km/h (1 Bft)
19.08.2015 03:35 12,1 C 12,0 C 89 % 1011,4 hPa 0,0 mm 0,8 km/h (0 Bft) O 90 10,3 C 3,9 km/h (1 Bft)
19.08.2015 03:40 12,0 C 11,9 C 89 % 1011,4 hPa 0,7 mm 0,8 km/h (0 Bft) N-NW 337 10,2 C 0,0 km/h (0 Bft)
19.08.2015 03:45 11,9 C 11,8 C 90 % 1011,4 hPa 0,0 mm 1,0 km/h (0 Bft) NW 315 10,3 C 0,0 km/h (0 Bft)
19.08.2015 03:50 11,9 C 11,7 C 90 % 1011,4 hPa 0,0 mm 0,8 km/h (0 Bft) O-SO 112 10,3 C 0,0 km/h (0 Bft)
19.08.2015 03:55 11,8 C 11,6 C 90 % 1011,4 hPa 0,0 mm 0,5 km/h (0 Bft) S 180 10,2 C 3,6 km/h (1 Bft)
19.08.2015 04:00 11,8 C 11,6 C 90 % 1011,4 hPa 0,0 mm 0,5 km/h (0 Bft) S 180 10,2 C 0,0 km/h (0 Bft)
19.08.2015 04:05 11,7 C 11,6 C 90 % 1011,4 hPa 0,0 mm 1,3 km/h (1 Bft) SW 225 10,1 C 4,9 km/h (1 Bft)
19.08.2015 04:10 11,7 C 11,6 C 90 % 1011,4 hPa 0,7 mm 1,3 km/h (1 Bft) W-SW 247 10,1 C 0,0 km/h (0 Bft)
19.08.2015 04:15 11,7 C 11,6 C 90 % 1011,4 hPa 0,0 mm 0,8 km/h (0 Bft) SW 225 10,1 C 0,0 km/h (0 Bft)
19.08.2015 04:20 11,7 C 11,6 C 90 % 1011,4 hPa 0,0 mm 0,0 km/h (0 Bft) S 180 10,1 C 0,0 km/h (0 Bft)
19.08.2015 04:25 11,6 C 11,5 C 90 % 1011,4 hPa 0,0 mm 0,0 km/h (0 Bft) S-SO 157 10,0 C 0,0 km/h (0 Bft)
19.08.2015 04:30 11,6 C 11,5 C 90 % 1011,4 hPa 0,7 mm 0,3 km/h (0 Bft) SW 225 10,0 C 2,8 km/h (1 Bft)
19.08.2015 04:35 11,6 C 11,5 C 90 % 1011,4 hPa 0,0 mm 1,3 km/h (1 Bft) W-SW 247 10,0 C 3,1 km/h (1 Bft)
19.08.2015 04:40 11,6 C 11,5 C 90 % 1011,4 hPa 0,0 mm 2,3 km/h (1 Bft) SW 225 10,0 C 0,0 km/h (0 Bft)
19.08.2015 04:45 11,6 C 11,5 C 90 % 1011,4 hPa 0,0 mm 1,3 km/h (1 Bft) S 180 10,0 C 0,0 km/h (0 Bft)
19.08.2015 04:50 11,6 C 11,5 C 90 % 1011,4 hPa 0,0 mm 0,0 km/h (0 Bft) O 90 10,0 C 0,0 km/h (0 Bft)
19.08.2015 04:55 11,6 C 11,5 C 90 % 1011,4 hPa 0,0 mm 0,0 km/h (0 Bft) O-NO 67 10,0 C 0,0 km/h (0 Bft)
19.08.2015 05:00 11,6 C 11,5 C 90 % 1011,4 hPa 0,7 mm 0,0 km/h (0 Bft) O-NO 67 10,0 C 0,0 km/h (0 Bft)
19.08.2015 05:05 11,6 C 11,5 C 90 % 1011,4 hPa 0,0 mm 0,0 km/h (0 Bft) S-SO 157 10,0 C 0,0 km/h (0 Bft)
19.08.2015 05:10 11,6 C 11,5 C 91 % 1011,4 hPa 0,0 mm 0,3 km/h (0 Bft) S-SO 157 10,2 C 0,0 km/h (0 Bft)
19.08.2015 05:15 11,6 C 11,5 C 91 % 1011,4 hPa 0,0 mm 0,3 km/h (0 Bft) S-SO 157 10,2 C 0,0 km/h (0 Bft)
19.08.2015 05:20 11,6 C 11,5 C 91 % 1011,4 hPa 0,0 mm 0,3 km/h (0 Bft) S 180 10,2 C 0,0 km/h (0 Bft)
19.08.2015 05:25 11,6 C 11,5 C 91 % 1011,4 hPa 0,0 mm 0,8 km/h (0 Bft) S-SO 157 10,2 C 0,0 km/h (0 Bft)
19.08.2015 05:30 11,6 C 11,5 C 91 % 1011,4 hPa 0,0 mm 0,8 km/h (0 Bft) S-SW 202 10,2 C 3,1 km/h (1 Bft)
19.08.2015 05:35 11,6 C 11,5 C 91 % 1011,2 hPa 0,0 mm 0,5 km/h (0 Bft) S-SO 157 10,2 C 0,0 km/h (0 Bft)
19.08.2015 05:40 11,6 C 11,5 C 91 % 1011,2 hPa 0,0 mm 0,3 km/h (0 Bft) SW 225 10,2 C 0,0 km/h (0 Bft)
19.08.2015 05:41 11,6 C 11,5 C 91 % 1011,2 hPa 0,0 mm 0,0 km/h (0 Bft) S 180 10,2 C 0,0 km/h (0 Bft)
19.08.2015 05:42 11,6 C 11,5 C 91 % 1011,2 hPa 0,0 mm 0,0 km/h (0 Bft) S 180 10,2 C 0,0 km/h (0 Bft)
19.08.2015 05:45 11,6 C 11,5 C 91 % 1011,2 hPa 0,0 mm 0,0 km/h (0 Bft) S 180 10,2 C 0,0 km/h (0 Bft)
19.08.2015 05:50 11,6 C 11,5 C 91 % 1011,2 hPa 0,0 mm 0,0 km/h (0 Bft) S-SO 157 10,2 C 0,0 km/h (0 Bft)
19.08.2015 05:55 11,6 C 11,5 C 91 % 1011,2 hPa 0,0 mm 0,0 km/h (0 Bft) SO 135 10,2 C 0,0 km/h (0 Bft)
19.08.2015 06:00 11,6 C 11,5 C 91 % 1011,2 hPa 0,0 mm 0,0 km/h (0 Bft) O-SO 112 10,2 C 0,0 km/h (0 Bft)
19.08.2015 06:05 11,6 C 11,5 C 91 % 1011,2 hPa 0,0 mm 0,3 km/h (0 Bft) O-SO 112 10,2 C 3,6 km/h (1 Bft)
19.08.2015 06:10 11,6 C 11,5 C 91 % 1011,2 hPa 0,0 mm 0,3 km/h (0 Bft) SO 135 10,2 C 0,0 km/h (0 Bft)
19.08.2015 06:15 11,6 C 11,5 C 91 % 1011,2 hPa 0,0 mm 0,0 km/h (0 Bft) SO 135 10,2 C 0,0 km/h (0 Bft)
19.08.2015 06:20 11,6 C 11,5 C 91 % 1011,2 hPa 0,0 mm 0,0 km/h (0 Bft) O-SO 112 10,2 C 0,0 km/h (0 Bft)
19.08.2015 06:25 11,6 C 11,5 C 91 % 1011,2 hPa 0,7 mm 0,0 km/h (0 Bft) SO 135 10,2 C 0,0 km/h (0 Bft)
19.08.2015 06:30 11,6 C 11,5 C 91 % 1011,2 hPa 0,0 mm 0,0 km/h (0 Bft) SO 135 10,2 C 0,0 km/h (0 Bft)
19.08.2015 06:35 11,6 C 11,5 C 91 % 1011,3 hPa 0,0 mm 0,0 km/h (0 Bft) SO 135 10,2 C 0,0 km/h (0 Bft)
19.08.2015 06:40 11,5 C 11,4 C 91 % 1011,3 hPa 0,7 mm 0,0 km/h (0 Bft) O-SO 112 10,1 C 0,0 km/h (0 Bft)
19.08.2015 06:45 11,5 C 11,4 C 91 % 1011,3 hPa 0,0 mm 0,0 km/h (0 Bft) O-SO 112 10,1 C 0,0 km/h (0 Bft)
19.08.2015 06:50 11,5 C 11,4 C 91 % 1011,3 hPa 0,0 mm 0,0 km/h (0 Bft) O-SO 112 10,1 C 0,0 km/h (0 Bft)
19.08.2015 06:55 11,5 C 11,4 C 91 % 1011,4 hPa 0,0 mm 0,0 km/h (0 Bft) O-SO 112 10,1 C 0,0 km/h (0 Bft)
19.08.2015 07:00 11,5 C 11,4 C 91 % 1011,4 hPa 0,0 mm 0,0 km/h (0 Bft) SO 135 10,1 C 0,0 km/h (0 Bft)
19.08.2015 07:05 11,6 C 11,5 C 91 % 1011,4 hPa 0,0 mm 0,0 km/h (0 Bft) O-SO 112 10,2 C 0,0 km/h (0 Bft)
19.08.2015 07:10 11,6 C 11,5 C 91 % 1011,4 hPa 0,7 mm 0,0 km/h (0 Bft) O 90 10,2 C 0,0 km/h (0 Bft)
19.08.2015 07:15 11,6 C 11,5 C 91 % 1011,6 hPa 0,0 mm 0,0 km/h (0 Bft) O 90 10,2 C 0,0 km/h (0 Bft)
19.08.2015 07:20 11,6 C 11,5 C 91 % 1011,6 hPa 0,0 mm 0,0 km/h (0 Bft) O-SO 112 10,2 C 0,0 km/h (0 Bft)
19.08.2015 07:25 11,6 C 11,5 C 91 % 1011,6 hPa 0,0 mm 0,0 km/h (0 Bft) SO 135 10,2 C 0,0 km/h (0 Bft)
19.08.2015 07:30 11,6 C 11,5 C 91 % 1011,6 hPa 0,7 mm 0,0 km/h (0 Bft) SO 135 10,2 C 0,0 km/h (0 Bft)
19.08.2015 07:35 11,6 C 11,5 C 91 % 1011,8 hPa 0,0 mm 0,0 km/h (0 Bft) S-SO 157 10,2 C 0,0 km/h (0 Bft)
19.08.2015 07:40 11,6 C 11,5 C 91 % 1011,8 hPa 0,0 mm 0,0 km/h (0 Bft) W-NW 292 10,2 C 0,0 km/h (0 Bft)
19.08.2015 07:45 11,6 C 11,5 C 91 % 1011,8 hPa 0,0 mm 0,0 km/h (0 Bft) SW 225 10,2 C 0,0 km/h (0 Bft)
19.08.2015 07:50 11,6 C 11,5 C 91 % 1011,8 hPa 0,0 mm 0,0 km/h (0 Bft) W-NW 292 10,2 C 0,0 km/h (0 Bft)
19.08.2015 07:55 11,6 C 11,5 C 91 % 1011,9 hPa 0,0 mm 0,0 km/h (0 Bft) W 270 10,2 C 0,0 km/h (0 Bft)
19.08.2015 08:00 11,6 C 11,5 C 91 % 1011,9 hPa 0,0 mm 0,0 km/h (0 Bft) W 270 10,2 C 0,0 km/h (0 Bft)
19.08.2015 08:05 11,7 C 11,6 C 91 % 1011,9 hPa 0,0 mm 0,0 km/h (0 Bft) W-SW 247 10,3 C 0,0 km/h (0 Bft)
19.08.2015 08:10 11,7 C 11,6 C 91 % 1011,9 hPa 0,7 mm 0,0 km/h (0 Bft) W-SW 247 10,3 C 0,0 km/h (0 Bft)
19.08.2015 08:15 11,7 C 11,6 C 91 % 1011,9 hPa 0,0 mm 0,0 km/h (0 Bft) NW 315 10,3 C 0,0 km/h (0 Bft)
19.08.2015 08:20 11,7 C 11,7 C 88 % 1011,9 hPa 0,0 mm 0,0 km/h (0 Bft) NW 315 9,8 C 0,0 km/h (0 Bft)
19.08.2015 08:25 11,7 C 11,7 C 88 % 1011,9 hPa 0,0 mm 0,0 km/h (0 Bft) N-NO 22 9,8 C 0,0 km/h (0 Bft)
19.08.2015 08:30 11,8 C 11,8 C 88 % 1011,9 hPa 0,0 mm 0,3 km/h (0 Bft) N-NO 22 9,9 C 0,0 km/h (0 Bft)
19.08.2015 08:35 11,8 C 11,8 C 88 % 1012,0 hPa 0,0 mm 0,8 km/h (0 Bft) N-NO 22 9,9 C 2,8 km/h (1 Bft)
19.08.2015 08:40 11,8 C 11,8 C 88 % 1012,0 hPa 0,0 mm 0,8 km/h (0 Bft) O-NO 67 9,9 C 0,0 km/h (0 Bft)
19.08.2015 08:45 11,8 C 11,8 C 88 % 1012,0 hPa 0,0 mm 0,5 km/h (0 Bft) O-NO 67 9,9 C 0,0 km/h (0 Bft)
19.08.2015 08:50 11,8 C 11,8 C 88 % 1012,0 hPa 0,0 mm 0,0 km/h (0 Bft) O-SO 112 9,9 C 0,0 km/h (0 Bft)
19.08.2015 08:55 11,9 C 11,8 C 91 % 1012,1 hPa 0,0 mm 0,0 km/h (0 Bft) S-SO 157 10,5 C 0,0 km/h (0 Bft)
19.08.2015 09:00 11,9 C 12,0 C 88 % 1012,1 hPa 0,0 mm 0,0 km/h (0 Bft) O-NO 67 10,0 C 0,0 km/h (0 Bft)
19.08.2015 09:05 12,0 C 12,1 C 88 % 1012,1 hPa 0,0 mm 0,0 km/h (0 Bft) SO 135 10,1 C 0,0 km/h (0 Bft)
19.08.2015 09:10 12,0 C 12,1 C 88 % 1012,1 hPa 0,0 mm 0,0 km/h (0 Bft) O-SO 112 10,1 C 0,0 km/h (0 Bft)
19.08.2015 09:15 12,1 C 12,2 C 88 % 1012,0 hPa 0,0 mm 0,0 km/h (0 Bft) N-NO 22 10,2 C 0,0 km/h (0 Bft)
19.08.2015 09:20 12,1 C 12,3 C 88 % 1012,0 hPa 0,0 mm 0,0 km/h (0 Bft) SO 135 10,2 C 0,0 km/h (0 Bft)
19.08.2015 09:25 12,2 C 12,3 C 88 % 1012,0 hPa 0,0 mm 0,0 km/h (0 Bft) SO 135 10,3 C 0,0 km/h (0 Bft)
19.08.2015 09:30 12,2 C 12,3 C 88 % 1012,0 hPa 0,0 mm 0,0 km/h (0 Bft) S-SO 157 10,3 C 0,0 km/h (0 Bft)
19.08.2015 09:35 12,2 C 12,5 C 88 % 1012,1 hPa 0,0 mm 0,0 km/h (0 Bft) N-NO 22 10,3 C 0,0 km/h (0 Bft)
19.08.2015 09:40 12,3 C 12,6 C 88 % 1012,1 hPa 0,0 mm 0,0 km/h (0 Bft) N-NW 337 10,4 C 0,0 km/h (0 Bft)
19.08.2015 09:45 12,4 C 12,6 C 88 % 1012,1 hPa 0,0 mm 0,3 km/h (0 Bft) N-NW 337 10,5 C 0,0 km/h (0 Bft)
19.08.2015 09:50 12,4 C 12,6 C 88 % 1012,1 hPa 0,0 mm 0,3 km/h (0 Bft) O 90 10,5 C 0,0 km/h (0 Bft)
19.08.2015 09:55 12,5 C 12,7 C 88 % 1012,4 hPa 0,0 mm 0,0 km/h (0 Bft) O-SO 112 10,6 C 0,0 km/h (0 Bft)
19.08.2015 10:00 12,6 C 13,0 C 88 % 1012,4 hPa 0,0 mm 0,0 km/h (0 Bft) SW 225 10,7 C 0,0 km/h (0 Bft)
19.08.2015 10:05 12,6 C 13,0 C 88 % 1012,4 hPa 0,0 mm 0,0 km/h (0 Bft) W-NW 292 10,7 C 0,0 km/h (0 Bft)
19.08.2015 10:10 12,8 C 13,0 C 88 % 1012,4 hPa 0,0 mm 0,3 km/h (0 Bft) W-NW 292 10,9 C 3,1 km/h (1 Bft)
19.08.2015 10:15 12,8 C 13,0 C 88 % 1012,5 hPa 0,0 mm 0,3 km/h (0 Bft) W-NW 292 10,9 C 0,0 km/h (0 Bft)
19.08.2015 10:20 12,6 C 12,9 C 88 % 1012,5 hPa 0,0 mm 0,3 km/h (0 Bft) SW 225 10,7 C 0,0 km/h (0 Bft)
19.08.2015 10:25 12,7 C 13,0 C 88 % 1012,5 hPa 0,0 mm 0,0 km/h (0 Bft) NW 315 10,8 C 0,0 km/h (0 Bft)
19.08.2015 10:30 12,7 C 13,0 C 88 % 1012,5 hPa 0,0 mm 0,3 km/h (0 Bft) NW 315 10,8 C 0,0 km/h (0 Bft)
19.08.2015 10:35 12,8 C 13,1 C 88 % 1012,6 hPa 0,0 mm 0,3 km/h (0 Bft) N-NO 22 10,9 C 0,0 km/h (0 Bft)
19.08.2015 10:40 12,8 C 13,0 C 88 % 1012,6 hPa 0,0 mm 0,3 km/h (0 Bft) N-NO 22 10,9 C 0,0 km/h (0 Bft)
19.08.2015 10:45 12,9 C 13,0 C 88 % 1012,6 hPa 0,0 mm 0,8 km/h (0 Bft) O-NO 67 11,0 C 0,0 km/h (0 Bft)
19.08.2015 10:50 12,8 C 12,9 C 88 % 1012,6 hPa 0,0 mm 1,0 km/h (0 Bft) N-NW 337 10,9 C 3,1 km/h (1 Bft)
19.08.2015 10:55 12,8 C 12,9 C 88 % 1012,9 hPa 0,0 mm 1,0 km/h (0 Bft) NW 315 10,9 C 4,7 km/h (1 Bft)
19.08.2015 11:00 12,8 C 12,8 C 88 % 1012,9 hPa 0,7 mm 1,8 km/h (1 Bft) NO 45 10,9 C 0,0 km/h (0 Bft)
19.08.2015 11:05 12,8 C 12,8 C 87 % 1012,9 hPa 0,0 mm 1,3 km/h (1 Bft) N-NO 22 10,7 C 3,6 km/h (1 Bft)
19.08.2015 11:10 12,9 C 12,9 C 87 % 1012,9 hPa 0,0 mm 2,1 km/h (1 Bft) N-NO 22 10,8 C 4,9 km/h (1 Bft)
19.08.2015 11:15 12,9 C 13,0 C 87 % 1012,9 hPa 0,0 mm 2,6 km/h (1 Bft) N-NW 337 10,8 C 4,4 km/h (1 Bft)
19.08.2015 11:20 12,9 C 12,9 C 87 % 1012,9 hPa 0,0 mm 3,1 km/h (1 Bft) N-NO 22 10,8 C 7,5 km/h (2 Bft)
19.08.2015 11:25 12,9 C 12,8 C 87 % 1012,9 hPa 0,0 mm 2,8 km/h (1 Bft) N-NO 22 10,8 C 0,0 km/h (0 Bft)
19.08.2015 11:30 12,8 C 12,6 C 87 % 1012,9 hPa 0,0 mm 3,6 km/h (1 Bft) O-NO 67 10,7 C 10,6 km/h (2 Bft)
19.08.2015 11:35 12,7 C 12,7 C 86 % 1012,7 hPa 0,0 mm 3,4 km/h (1 Bft) O-NO 67 10,4 C 6,7 km/h (2 Bft)
19.08.2015 11:40 12,9 C 13,0 C 86 % 1012,7 hPa 0,0 mm 3,1 km/h (1 Bft) NO 45 10,6 C 0,0 km/h (0 Bft)
19.08.2015 11:41 13,0 C 13,1 C 86 % 1012,7 hPa 0,0 mm 2,1 km/h (1 Bft) O-NO 67 10,7 C 4,1 km/h (1 Bft)
19.08.2015 11:43 13,0 C 13,1 C 86 % 1012,7 hPa 0,0 mm 2,1 km/h (1 Bft) O-NO 67 10,7 C 4,1 km/h (1 Bft)
19.08.2015 11:45 13,0 C 13,1 C 86 % 1012,7 hPa 0,0 mm 2,1 km/h (1 Bft) O-NO 67 10,7 C 4,1 km/h (1 Bft)
19.08.2015 11:50 13,0 C 13,2 C 85 % 1012,7 hPa 0,0 mm 1,8 km/h (1 Bft) O-NO 67 10,5 C 0,0 km/h (0 Bft)
19.08.2015 11:55 13,1 C 13,2 C 85 % 1013,0 hPa 0,0 mm 1,6 km/h (1 Bft) O-NO 67 10,6 C 0,0 km/h (0 Bft)
19.08.2015 12:00 13,1 C 13,1 C 85 % 1013,0 hPa 0,0 mm 1,3 km/h (1 Bft) N 360 10,6 C 0,0 km/h (0 Bft)
19.08.2015 12:05 13,1 C 13,1 C 85 % 1013,0 hPa 0,0 mm 2,1 km/h (1 Bft) N-NO 22 10,6 C 6,2 km/h (2 Bft)
19.08.2015 12:10 13,1 C 13,0 C 85 % 1013,0 hPa 0,0 mm 1,3 km/h (1 Bft) N-NO 22 10,6 C 0,0 km/h (0 Bft)
19.08.2015 12:15 13,1 C 13,0 C 85 % 1013,2 hPa 0,0 mm 1,3 km/h (1 Bft) N-NW 337 10,6 C 0,0 km/h (0 Bft)
19.08.2015 12:20 13,2 C 13,1 C 85 % 1013,2 hPa 0,0 mm 1,8 km/h (1 Bft) N-NO 22 10,7 C 7,0 km/h (2 Bft)
19.08.2015 12:25 13,1 C 13,1 C 85 % 1013,2 hPa 0,0 mm 3,1 km/h (1 Bft) N 360 10,6 C 4,7 km/h (1 Bft)
19.08.2015 12:30 13,2 C 13,3 C 85 % 1013,2 hPa 0,0 mm 3,9 km/h (1 Bft) N-NW 337 10,7 C 7,3 km/h (2 Bft)
19.08.2015 12:35 13,3 C 13,5 C 85 % 1013,0 hPa 0,0 mm 3,6 km/h (1 Bft) N 360 10,8 C 7,5 km/h (2 Bft)
19.08.2015 12:40 13,3 C 13,5 C 84 % 1013,0 hPa 0,0 mm 4,1 km/h (1 Bft) W-NW 292 10,7 C 4,7 km/h (1 Bft)
19.08.2015 12:45 13,3 C 13,6 C 84 % 1013,0 hPa 0,0 mm 4,1 km/h (1 Bft) N-NW 337 10,7 C 4,7 km/h (1 Bft)
19.08.2015 12:50 13,5 C 13,7 C 84 % 1013,0 hPa 0,0 mm 4,4 km/h (1 Bft) NO 45 10,8 C 7,0 km/h (2 Bft)
19.08.2015 12:55 13,4 C 13,6 C 84 % 1013,2 hPa 0,0 mm 4,9 km/h (1 Bft) N 360 10,8 C 4,1 km/h (1 Bft)
19.08.2015 13:00 13,6 C 13,8 C 84 % 1013,2 hPa 0,0 mm 3,6 km/h (1 Bft) NO 45 10,9 C 12,7 km/h (3 Bft)
19.08.2015 13:05 13,5 C 13,7 C 84 % 1013,2 hPa 0,0 mm 3,1 km/h (1 Bft) N-NO 22 10,8 C 10,9 km/h (2 Bft)
19.08.2015 13:10 13,5 C 13,8 C 84 % 1013,2 hPa 0,0 mm 4,1 km/h (1 Bft) NO 45 10,8 C 8,0 km/h (2 Bft)
19.08.2015 13:15 13,4 C 13,6 C 84 % 1013,4 hPa 0,0 mm 5,4 km/h (1 Bft) N-NW 337 10,8 C 4,1 km/h (1 Bft)
19.08.2015 13:20 13,4 C 13,5 C 84 % 1013,4 hPa 0,0 mm 6,0 km/h (2 Bft) W 270 10,8 C 7,3 km/h (2 Bft)
19.08.2015 13:25 13,3 C 13,4 C 84 % 1013,4 hPa 0,0 mm 6,2 km/h (2 Bft) NW 315 10,7 C 11,4 km/h (2 Bft)
19.08.2015 13:30 13,4 C 13,7 C 84 % 1013,4 hPa 0,0 mm 4,7 km/h (1 Bft) O-NO 67 10,8 C 0,0 km/h (0 Bft)
19.08.2015 13:35 13,5 C 14,0 C 84 % 1013,4 hPa 0,0 mm 3,1 km/h (1 Bft) NO 45 10,8 C 0,0 km/h (0 Bft)
19.08.2015 13:40 13,6 C 14,5 C 84 % 1013,4 hPa 0,0 mm 3,1 km/h (1 Bft) NW 315 10,9 C 9,8 km/h (2 Bft)
19.08.2015 13:45 13,6 C 14,5 C 84 % 1013,4 hPa 0,0 mm 4,4 km/h (1 Bft) NW 315 10,9 C 8,0 km/h (2 Bft)
19.08.2015 13:50 13,5 C 14,2 C 84 % 1013,4 hPa 0,0 mm 6,2 km/h (2 Bft) W-NW 292 10,8 C 8,8 km/h (2 Bft)
19.08.2015 13:55 13,5 C 14,1 C 84 % 1013,3 hPa 0,0 mm 6,5 km/h (2 Bft) N-NO 22 10,8 C 4,4 km/h (1 Bft)
19.08.2015 14:00 13,5 C 14,2 C 84 % 1013,3 hPa 0,0 mm 4,4 km/h (1 Bft) NO 45 10,8 C 5,2 km/h (1 Bft)
19.08.2015 14:05 13,5 C 14,2 C 84 % 1013,3 hPa 0,0 mm 2,8 km/h (1 Bft) N-NW 337 10,8 C 2,8 km/h (1 Bft)
19.08.2015 14:10 13,6 C 14,4 C 84 % 1013,3 hPa 0,0 mm 3,6 km/h (1 Bft) NW 315 10,9 C 6,5 km/h (2 Bft)
19.08.2015 14:15 13,6 C 14,4 C 84 % 1013,6 hPa 0,0 mm 4,4 km/h (1 Bft) W-NW 292 10,9 C 7,0 km/h (2 Bft)
19.08.2015 14:20 13,5 C 14,3 C 83 % 1013,6 hPa 0,0 mm 4,7 km/h (1 Bft) N-NW 337 10,7 C 3,1 km/h (1 Bft)
19.08.2015 14:25 13,6 C 14,5 C 84 % 1013,6 hPa 0,0 mm 3,1 km/h (1 Bft) W-NW 292 10,9 C 0,0 km/h (0 Bft)
19.08.2015 14:30 13,6 C 14,7 C 83 % 1013,6 hPa 0,0 mm 1,6 km/h (1 Bft) N-NO 22 10,8 C 2,8 km/h (1 Bft)
19.08.2015 14:35 13,5 C 14,7 C 83 % 1013,6 hPa 0,0 mm 1,6 km/h (1 Bft) N 360 10,7 C 3,4 km/h (1 Bft)
19.08.2015 14:40 13,6 C 14,6 C 83 % 1013,6 hPa 0,0 mm 1,3 km/h (1 Bft) W-NW 292 10,8 C 4,7 km/h (1 Bft)
19.08.2015 14:45 13,6 C 14,3 C 83 % 1013,6 hPa 0,0 mm 1,8 km/h (1 Bft) NW 315 10,8 C 4,9 km/h (1 Bft)
19.08.2015 14:50 13,4 C 13,8 C 83 % 1013,6 hPa 0,0 mm 4,7 km/h (1 Bft) NW 315 10,6 C 14,8 km/h (3 Bft)
19.08.2015 14:55 13,3 C 13,4 C 83 % 1013,6 hPa 0,0 mm 5,7 km/h (1 Bft) N-NO 22 10,5 C 6,5 km/h (2 Bft)
19.08.2015 15:00 13,4 C 13,7 C 83 % 1013,6 hPa 0,0 mm 4,7 km/h (1 Bft) NW 315 10,6 C 6,2 km/h (2 Bft)
19.08.2015 15:05 13,5 C 13,8 C 83 % 1013,6 hPa 0,0 mm 3,6 km/h (1 Bft) N-NO 22 10,7 C 4,1 km/h (1 Bft)
19.08.2015 15:10 13,5 C 14,0 C 83 % 1013,6 hPa 0,0 mm 4,7 km/h (1 Bft) N-NO 22 10,7 C 10,9 km/h (2 Bft)
19.08.2015 15:15 13,5 C 14,1 C 83 % 1013,8 hPa 0,0 mm 6,0 km/h (2 Bft) N-NW 337 10,7 C 9,1 km/h (2 Bft)
19.08.2015 15:20 13,6 C 14,4 C 83 % 1013,8 hPa 0,0 mm 6,0 km/h (2 Bft) O-NO 67 10,8 C 9,3 km/h (2 Bft)
19.08.2015 15:25 13,7 C 14,6 C 83 % 1013,8 hPa 0,0 mm 4,7 km/h (1 Bft) N-NO 22 10,9 C 5,7 km/h (1 Bft)
19.08.2015 15:30 13,7 C 14,8 C 83 % 1013,8 hPa 0,0 mm 4,9 km/h (1 Bft) W-NW 292 10,9 C 6,0 km/h (2 Bft)
19.08.2015 15:35 13,7 C 14,8 C 83 % 1013,8 hPa 0,0 mm 6,0 km/h (2 Bft) W-NW 292 10,9 C 9,8 km/h (2 Bft)
19.08.2015 15:40 13,6 C 14,7 C 83 % 1013,8 hPa 0,0 mm 4,9 km/h (1 Bft) N-NW 337 10,8 C 3,4 km/h (1 Bft)
19.08.2015 15:45 13,6 C 14,5 C 83 % 1013,8 hPa 0,0 mm 3,1 km/h (1 Bft) N-NO 22 10,8 C 0,0 km/h (0 Bft)
19.08.2015 15:50 13,6 C 14,4 C 83 % 1013,8 hPa 0,0 mm 2,3 km/h (1 Bft) NW 315 10,8 C 4,4 km/h (1 Bft)
19.08.2015 15:55 13,6 C 14,2 C 83 % 1013,9 hPa 0,0 mm 2,8 km/h (1 Bft) N-NO 22 10,8 C 3,6 km/h (1 Bft)
19.08.2015 16:00 13,6 C 14,0 C 83 % 1013,9 hPa 0,0 mm 3,1 km/h (1 Bft) NO 45 10,8 C 6,7 km/h (2 Bft)
19.08.2015 16:05 13,6 C 14,0 C 82 % 1013,9 hPa 0,0 mm 4,1 km/h (1 Bft) N-NO 22 10,6 C 5,4 km/h (1 Bft)
19.08.2015 16:10 13,6 C 13,9 C 82 % 1013,9 hPa 0,0 mm 5,2 km/h (1 Bft) N-NO 22 10,6 C 3,9 km/h (1 Bft)
19.08.2015 16:15 13,6 C 13,8 C 82 % 1014,0 hPa 0,0 mm 4,7 km/h (1 Bft) N-NO 22 10,6 C 5,4 km/h (1 Bft)
19.08.2015 16:20 13,5 C 13,8 C 82 % 1014,0 hPa 0,0 mm 3,9 km/h (1 Bft) N-NO 22 10,5 C 3,6 km/h (1 Bft)
19.08.2015 16:25 13,5 C 13,8 C 82 % 1014,0 hPa 0,0 mm 3,1 km/h (1 Bft) N-NW 337 10,5 C 4,4 km/h (1 Bft)
19.08.2015 16:30 13,6 C 13,8 C 82 % 1014,0 hPa 0,0 mm 2,1 km/h (1 Bft) N 360 10,6 C 5,2 km/h (1 Bft)
19.08.2015 16:35 13,5 C 13,9 C 81 % 1014,0 hPa 0,0 mm 1,6 km/h (1 Bft) NO 45 10,3 C 0,0 km/h (0 Bft)
19.08.2015 16:40 13,6 C 14,0 C 82 % 1014,0 hPa 0,0 mm 1,3 km/h (1 Bft) N-NW 337 10,6 C 9,3 km/h (2 Bft)
19.08.2015 16:45 13,5 C 13,8 C 82 % 1014,0 hPa 0,0 mm 2,3 km/h (1 Bft) N-NO 22 10,5 C 4,1 km/h (1 Bft)
19.08.2015 16:50 13,5 C 13,8 C 82 % 1014,0 hPa 0,0 mm 4,4 km/h (1 Bft) N-NW 337 10,5 C 9,3 km/h (2 Bft)
19.08.2015 16:55 13,4 C 13,8 C 82 % 1013,9 hPa 0,0 mm 4,4 km/h (1 Bft) NW 315 10,4 C 8,5 km/h (2 Bft)
19.08.2015 17:00 13,4 C 13,8 C 82 % 1013,9 hPa 0,0 mm 4,7 km/h (1 Bft) W 270 10,4 C 0,0 km/h (0 Bft)
19.08.2015 17:05 13,5 C 13,9 C 81 % 1013,9 hPa 0,0 mm 3,6 km/h (1 Bft) N-NO 22 10,3 C 3,4 km/h (1 Bft)
19.08.2015 17:10 13,7 C 14,2 C 82 % 1013,9 hPa 0,0 mm 1,0 km/h (0 Bft) N-NW 337 10,7 C 3,4 km/h (1 Bft)
19.08.2015 17:15 13,7 C 14,4 C 81 % 1014,0 hPa 0,0 mm 1,0 km/h (0 Bft) NW 315 10,5 C 3,6 km/h (1 Bft)
19.08.2015 17:20 13,7 C 14,7 C 81 % 1014,0 hPa 0,0 mm 1,0 km/h (0 Bft) NW 315 10,5 C 0,0 km/h (0 Bft)
19.08.2015 17:25 13,8 C 14,7 C 82 % 1014,0 hPa 0,0 mm 0,3 km/h (0 Bft) W-SW 247 10,8 C 0,0 km/h (0 Bft)
19.08.2015 17:30 13,8 C 14,7 C 82 % 1014,0 hPa 0,0 mm 0,0 km/h (0 Bft) S 180 10,8 C 2,6 km/h (1 Bft)
19.08.2015 17:35 13,8 C 14,6 C 82 % 1014,1 hPa 0,0 mm 0,3 km/h (0 Bft) SW 225 10,8 C 0,0 km/h (0 Bft)
19.08.2015 17:40 13,5 C 14,4 C 81 % 1014,1 hPa 0,0 mm 0,5 km/h (0 Bft) SW 225 10,3 C 2,6 km/h (1 Bft)
19.08.2015 17:41 13,4 C 14,2 C 82 % 1014,1 hPa 0,0 mm 0,3 km/h (0 Bft) W-SW 247 10,4 C 0,0 km/h (0 Bft)
19.08.2015 17:44 13,4 C 14,2 C 82 % 1014,1 hPa 0,0 mm 0,3 km/h (0 Bft) W-SW 247 10,4 C 0,0 km/h (0 Bft)
19.08.2015 17:45 13,4 C 14,2 C 82 % 1014,1 hPa 0,0 mm 0,3 km/h (0 Bft) W-SW 247 10,4 C 0,0 km/h (0 Bft)
19.08.2015 17:50 13,3 C 14,0 C 82 % 1014,1 hPa 0,0 mm 0,5 km/h (0 Bft) SW 225 10,3 C 4,7 km/h (1 Bft)
19.08.2015 17:55 13,3 C 13,8 C 82 % 1014,2 hPa 0,0 mm 0,8 km/h (0 Bft) S 180 10,3 C 0,0 km/h (0 Bft)
19.08.2015 18:00 13,3 C 13,6 C 82 % 1014,2 hPa 0,0 mm 1,0 km/h (0 Bft) SW 225 10,3 C 0,0 km/h (0 Bft)
19.08.2015 18:05 13,3 C 13,6 C 83 % 1014,2 hPa 0,0 mm 0,5 km/h (0 Bft) W-SW 247 10,5 C 0,0 km/h (0 Bft)
19.08.2015 18:10 13,2 C 13,4 C 82 % 1014,2 hPa 0,0 mm 1,6 km/h (1 Bft) W-SW 247 10,2 C 4,7 km/h (1 Bft)
19.08.2015 18:15 13,2 C 13,3 C 83 % 1014,4 hPa 0,0 mm 2,1 km/h (1 Bft) S-SW 202 10,4 C 0,0 km/h (0 Bft)
19.08.2015 18:20 13,1 C 13,2 C 84 % 1014,4 hPa 0,0 mm 1,0 km/h (0 Bft) SW 225 10,5 C 0,0 km/h (0 Bft)
19.08.2015 18:25 13,0 C 13,1 C 84 % 1014,4 hPa 0,0 mm 0,3 km/h (0 Bft) S 180 10,4 C 2,8 km/h (1 Bft)
19.08.2015 18:30 13,0 C 13,0 C 84 % 1014,4 hPa 0,0 mm 1,0 km/h (0 Bft) SW 225 10,4 C 0,0 km/h (0 Bft)
19.08.2015 18:35 12,9 C 12,8 C 85 % 1014,6 hPa 0,0 mm 1,6 km/h (1 Bft) SW 225 10,4 C 2,6 km/h (1 Bft)
19.08.2015 18:40 12,8 C 12,7 C 85 % 1014,6 hPa 0,0 mm 1,3 km/h (1 Bft) SW 225 10,3 C 4,4 km/h (1 Bft)
19.08.2015 18:45 12,7 C 12,6 C 86 % 1014,6 hPa 0,0 mm 1,0 km/h (0 Bft) SW 225 10,4 C 2,8 km/h (1 Bft)
19.08.2015 18:50 12,7 C 12,5 C 86 % 1014,6 hPa 0,0 mm 2,6 km/h (1 Bft) SW 225 10,4 C 4,7 km/h (1 Bft)
19.08.2015 18:55 12,6 C 12,4 C 86 % 1014,4 hPa 0,0 mm 2,8 km/h (1 Bft) SW 225 10,3 C 0,0 km/h (0 Bft)
19.08.2015 19:00 12,5 C 12,3 C 86 % 1014,4 hPa 0,0 mm 2,1 km/h (1 Bft) S-SO 157 10,2 C 3,6 km/h (1 Bft)
19.08.2015 19:05 12,5 C 12,3 C 86 % 1014,4 hPa 0,0 mm 1,8 km/h (1 Bft) SW 225 10,2 C 2,6 km/h (1 Bft)
19.08.2015 19:10 12,5 C 12,4 C 87 % 1014,4 hPa 0,0 mm 1,0 km/h (0 Bft) S-SW 202 10,4 C 2,6 km/h (1 Bft)
19.08.2015 19:15 12,5 C 12,4 C 87 % 1014,6 hPa 0,0 mm 0,3 km/h (0 Bft) SW 225 10,4 C 0,0 km/h (0 Bft)
19.08.2015 19:20 12,5 C 12,4 C 87 % 1014,6 hPa 0,0 mm 0,5 km/h (0 Bft) S-SW 202 10,4 C 3,4 km/h (1 Bft)
19.08.2015 19:25 12,4 C 12,3 C 87 % 1014,6 hPa 0,0 mm 0,8 km/h (0 Bft) S-SO 157 10,3 C 0,0 km/h (0 Bft)
19.08.2015 19:30 12,3 C 12,2 C 87 % 1014,6 hPa 0,0 mm 2,8 km/h (1 Bft) S-SW 202 10,2 C 8,5 km/h (2 Bft)
19.08.2015 19:35 12,3 C 12,1 C 87 % 1014,6 hPa 0,0 mm 4,4 km/h (1 Bft) S 180 10,2 C 7,3 km/h (2 Bft)
19.08.2015 19:40 12,3 C 12,1 C 87 % 1014,6 hPa 0,0 mm 4,7 km/h (1 Bft) SO 135 10,2 C 3,6 km/h (1 Bft)
19.08.2015 19:45 12,2 C 12,0 C 87 % 1014,6 hPa 0,0 mm 2,8 km/h (1 Bft) S-SO 157 10,1 C 0,0 km/h (0 Bft)
19.08.2015 19:50 12,2 C 12,0 C 87 % 1014,6 hPa 0,0 mm 1,0 km/h (0 Bft) W-SW 247 10,1 C 0,0 km/h (0 Bft)
19.08.2015 19:55 12,1 C 11,9 C 87 % 1014,8 hPa 0,0 mm 1,8 km/h (1 Bft) W-SW 247 10,0 C 7,3 km/h (2 Bft)
19.08.2015 20:00 12,0 C 11,8 C 87 % 1014,8 hPa 0,0 mm 3,1 km/h (1 Bft) SW 225 9,9 C 7,8 km/h (2 Bft)
19.08.2015 20:05 11,9 C 11,7 C 88 % 1014,8 hPa 0,0 mm 3,4 km/h (1 Bft) W-SW 247 10,0 C 2,8 km/h (1 Bft)
19.08.2015 20:10 11,9 C 11,7 C 88 % 1014,8 hPa 0,0 mm 1,8 km/h (1 Bft) SW 225 10,0 C 0,0 km/h (0 Bft)
19.08.2015 20:15 11,8 C 11,6 C 88 % 1014,9 hPa 0,0 mm 1,0 km/h (0 Bft) W-SW 247 9,9 C 0,0 km/h (0 Bft)
19.08.2015 20:20 11,7 C 11,5 C 88 % 1014,9 hPa 0,0 mm 0,8 km/h (0 Bft) W-SW 247 9,8 C 0,0 km/h (0 Bft)
19.08.2015 20:25 11,7 C 11,5 C 88 % 1014,9 hPa 0,0 mm 0,3 km/h (0 Bft) O-SO 112 9,8 C 0,0 km/h (0 Bft)
19.08.2015 20:30 11,7 C 11,5 C 88 % 1014,9 hPa 0,0 mm 0,3 km/h (0 Bft) O-NO 67 9,8 C 0,0 km/h (0 Bft)
19.08.2015 20:35 11,6 C 11,5 C 88 % 1015,0 hPa 0,0 mm 0,0 km/h (0 Bft) O 90 9,7 C 0,0 km/h (0 Bft)
19.08.2015 20:40 11,6 C 11,5 C 88 % 1015,0 hPa 0,0 mm 0,0 km/h (0 Bft) S 180 9,7 C 0,0 km/h (0 Bft)
19.08.2015 20:45 11,6 C 11,5 C 88 % 1015,0 hPa 0,0 mm 0,0 km/h (0 Bft) O-SO 112 9,7 C 0,0 km/h (0 Bft)
19.08.2015 20:50 11,6 C 11,4 C 88 % 1015,0 hPa 0,0 mm 0,0 km/h (0 Bft) O-NO 67 9,7 C 0,0 km/h (0 Bft)
19.08.2015 20:55 11,5 C 11,4 C 88 % 1015,1 hPa 0,0 mm 0,0 km/h (0 Bft) SO 135 9,6 C 0,0 km/h (0 Bft)
19.08.2015 21:00 11,5 C 11,4 C 88 % 1015,1 hPa 0,0 mm 0,0 km/h (0 Bft) W 270 9,6 C 0,0 km/h (0 Bft)
19.08.2015 21:05 11,5 C 11,4 C 88 % 1015,1 hPa 0,0 mm 0,0 km/h (0 Bft) SO 135 9,6 C 0,0 km/h (0 Bft)
19.08.2015 21:10 11,5 C 11,4 C 88 % 1015,1 hPa 0,0 mm 0,0 km/h (0 Bft) SW 225 9,6 C 5,2 km/h (1 Bft)
19.08.2015 21:15 11,5 C 11,4 C 88 % 1015,4 hPa 0,0 mm 1,0 km/h (0 Bft) SW 225 9,6 C 4,4 km/h (1 Bft)
19.08.2015 21:20 11,5 C 11,4 C 88 % 1015,4 hPa 0,0 mm 2,6 km/h (1 Bft) SW 225 9,6 C 0,0 km/h (0 Bft)
19.08.2015 21:25 11,4 C 11,3 C 88 % 1015,4 hPa 0,0 mm 2,1 km/h (1 Bft) SO 135 9,5 C 0,0 km/h (0 Bft)
19.08.2015 21:30 11,4 C 11,3 C 88 % 1015,4 hPa 0,0 mm 0,8 km/h (0 Bft) S 180 9,5 C 5,4 km/h (1 Bft)
19.08.2015 21:35 11,4 C 11,2 C 88 % 1015,5 hPa 0,0 mm 2,1 km/h (1 Bft) S-SO 157 9,5 C 0,0 km/h (0 Bft)
19.08.2015 21:40 11,4 C 11,2 C 88 % 1015,5 hPa 0,0 mm 1,6 km/h (1 Bft) S-SO 157 9,5 C 0,0 km/h (0 Bft)
19.08.2015 21:45 11,4 C 11,2 C 88 % 1015,5 hPa 0,0 mm 0,8 km/h (0 Bft) SW 225 9,5 C 6,0 km/h (2 Bft)
19.08.2015 21:50 11,3 C 11,1 C 88 % 1015,5 hPa 0,0 mm 1,3 km/h (1 Bft) W-SW 247 9,4 C 4,4 km/h (1 Bft)
19.08.2015 21:55 11,3 C 11,1 C 88 % 1015,5 hPa 0,0 mm 1,8 km/h (1 Bft) O 90 9,4 C 0,0 km/h (0 Bft)
19.08.2015 22:00 11,3 C 11,1 C 88 % 1015,5 hPa 0,0 mm 3,4 km/h (1 Bft) W-SW 247 9,4 C 3,4 km/h (1 Bft)
19.08.2015 22:05 11,3 C 11,1 C 88 % 1015,5 hPa 0,0 mm 4,4 km/h (1 Bft) W-SW 247 9,4 C 7,0 km/h (2 Bft)
19.08.2015 22:10 11,3 C 11,1 C 88 % 1015,5 hPa 0,0 mm 4,4 km/h (1 Bft) NW 315 9,4 C 7,0 km/h (2 Bft)
19.08.2015 22:15 11,3 C 11,1 C 88 % 1015,7 hPa 0,0 mm 4,7 km/h (1 Bft) W-SW 247 9,4 C 7,0 km/h (2 Bft)
19.08.2015 22:20 11,3 C 11,1 C 88 % 1015,7 hPa 0,0 mm 5,2 km/h (1 Bft) SW 225 9,4 C 4,1 km/h (1 Bft)
19.08.2015 22:25 11,3 C 11,1 C 88 % 1015,7 hPa 0,0 mm 4,4 km/h (1 Bft) W-NW 292 9,4 C 4,1 km/h (1 Bft)
19.08.2015 22:30 11,3 C 11,1 C 88 % 1015,7 hPa 0,0 mm 2,8 km/h (1 Bft) NW 315 9,4 C 7,0 km/h (2 Bft)
19.08.2015 22:35 11,2 C 11,0 C 88 % 1015,7 hPa 0,0 mm 2,8 km/h (1 Bft) W-SW 247 9,3 C 4,9 km/h (1 Bft)
19.08.2015 22:40 11,2 C 11,0 C 88 % 1015,7 hPa 0,0 mm 4,1 km/h (1 Bft) W 270 9,3 C 4,7 km/h (1 Bft)
19.08.2015 22:45 11,2 C 11,0 C 88 % 1015,7 hPa 0,0 mm 3,9 km/h (1 Bft) W-SW 247 9,3 C 6,0 km/h (2 Bft)
19.08.2015 22:50 11,2 C 11,0 C 88 % 1015,7 hPa 0,0 mm 2,8 km/h (1 Bft) W 270 9,3 C 5,4 km/h (1 Bft)
19.08.2015 22:55 11,2 C 11,0 C 88 % 1015,8 hPa 0,0 mm 3,1 km/h (1 Bft) SO 135 9,3 C 0,0 km/h (0 Bft)
19.08.2015 23:00 11,1 C 10,9 C 88 % 1015,8 hPa 0,0 mm 2,1 km/h (1 Bft) S-SO 157 9,2 C 0,0 km/h (0 Bft)
19.08.2015 23:05 11,1 C 10,9 C 88 % 1015,8 hPa 0,0 mm 0,5 km/h (0 Bft) NW 315 9,2 C 0,0 km/h (0 Bft)
19.08.2015 23:10 11,1 C 10,9 C 88 % 1015,8 hPa 0,0 mm 2,3 km/h (1 Bft) S 180 9,2 C 6,0 km/h (2 Bft)
19.08.2015 23:15 11,1 C 10,9 C 88 % 1015,9 hPa 0,0 mm 2,6 km/h (1 Bft) W-SW 247 9,2 C 4,9 km/h (1 Bft)
19.08.2015 23:20 11,0 C 10,8 C 88 % 1015,9 hPa 0,0 mm 1,8 km/h (1 Bft) W 270 9,1 C 0,0 km/h (0 Bft)
19.08.2015 23:25 11,0 C 10,8 C 88 % 1015,9 hPa 0,0 mm 1,6 km/h (1 Bft) W 270 9,1 C 3,1 km/h (1 Bft)
19.08.2015 23:30 11,0 C 10,8 C 88 % 1015,9 hPa 0,0 mm 0,8 km/h (0 Bft) W-SW 247 9,1 C 3,9 km/h (1 Bft)
19.08.2015 23:35 11,0 C 10,8 C 88 % 1015,6 hPa 0,0 mm 1,6 km/h (1 Bft) W-SW 247 9,1 C 6,0 km/h (2 Bft)
19.08.2015 23:40 10,9 C 10,8 C 88 % 1015,6 hPa 0,0 mm 2,1 km/h (1 Bft) W 270 9,0 C 3,1 km/h (1 Bft)
19.08.2015 23:41 10,9 C 10,7 C 88 % 1015,6 hPa 0,0 mm 1,3 km/h (1 Bft) S-SO 157 9,0 C 0,0 km/h (0 Bft)
19.08.2015 23:45 10,9 C 10,7 C 88 % 1015,6 hPa 0,0 mm 1,3 km/h (1 Bft) S-SO 157 9,0 C 0,0 km/h (0 Bft)
19.08.2015 23:50 10,8 C 10,6 C 88 % 1015,6 hPa 0,0 mm 0,5 km/h (0 Bft) O-SO 112 8,9 C 0,0 km/h (0 Bft)
19.08.2015 23:55 10,7 C 10,6 C 88 % 1015,7 hPa 0,0 mm 0,3 km/h (0 Bft) SO 135 8,8 C 0,0 km/h (0 Bft)
_ Min-Zeit 23:55 23:55 17:40 00:30 - 21:10 - - 23:55 23:55
Minimum _ 10,7 C 10,6 C 81 % 1011,1 hPa - 0,0 km/h (0 Bft) - - 8,8 C 0,0 km/h (0 Bft)
_ Max-Zeit 17:35 15:35 08:55 23:30 11:00 13:55 - - 02:10 14:50
Maximum _ 13,8 C 14,8 C 91 % 1015,9 hPa 0,7 mm 6,5 km/h
N-NO (2 Bft)
- - 11,5 C 14,8 km/h
NW (3 Bft)
Durchschnitt _ 12,4 C 12,5 C 87 % 1013,0 hPa #13,7 mm 1,5 km/h (1 Bft) N-NO - 10,4 C 2,3 km/h (1 Bft)